Regional Weather Roundup
Issued by NWS

Home | Current Version | Previous Version | Text Only | Print | Product List | Glossary Off
Versions: 1 2 3 4 5 6 7 8 9 10 11 12 13 14 15 16 17 18 19 20 21 22 23 24 25 26 27 28 29 30 31 32 33 34 35 36 37 38 39 40 41 42 43 44 45 46 47 48 49

000
ASUS45 KBOU 292007
RWRCO

WEATHER ROUNDUP FOR COLORADO
NATIONAL WEATHER SERVICE DENVER/BOULDER CO
200 PM MDT SAT AUG 29 2015

NOTE: "FAIR" INDICATES FEW OR NO CLOUDS BELOW 12000 FEET WITH NO
SIGNIFICANT WEATHER AND/OR OBSTRUCTIONS TO VISIBILITY.

COZ001>005-013-030-031-292100-
...NORTHWEST COLORADO...

CITY           SKY/WX    TMP DP  RH WIND       PRES   REMARKS
CRAIG          SUNNY     86  27  11 CALM      30.25F
HAYDEN         NOT AVBL
MEEKER         SUNNY     86  34  15 SW8       30.26F
MOUNT WERNER   NOT AVBL
STEAMBOAT SPGS SUNNY     80  21  11 SW8       30.31F
WALDEN         SUNNY     73  23  15 W6        30.41F
$$

COZ006>008-011-292100-
...WEST CENTRAL VALLEYS...

CITY           SKY/WX    TMP DP  RH WIND       PRES   REMARKS
GRAND JUNCTION SUNNY     87  42  20 SE3       30.17F
MONTROSE       SUNNY     86  42  21 N9        30.25F
EAGLE          MOSUNNY   82  39  21 SW9       30.30F
RIFLE          MOSUNNY   86  39  19 W10       30.21F
DELTA          SUNNY     90  41  18 NW3       30.21F
NUCLA          SUNNY     88  28  11 W5G20     30.29F
$$

COZ017>023-064>068-292100-
...SOUTHWEST COLORADO...

CITY           SKY/WX    TMP DP  RH WIND       PRES   REMARKS
DURANGO        MOSUNNY   80  43  26 VRB5      30.34F
CORTEZ         SUNNY     85  40  20 VRB3      30.26F
PAGOSA SPRINGS MOSUNNY   77  35  22 CALM      30.41F
TELLURIDE      PTSUNNY   71  35  26 S6        30.53S
WOLF CREEK PAS MOSUNNY   55  37  50 S8G18     30.75F
$$

COZ009-010-012-014-032>034-037-058>063-292100-
...CENTRAL COLORADO...

CITY           SKY/WX    TMP DP  RH WIND       PRES   REMARKS
ASPEN          MOSUNNY   77  41  27 W7        30.38F
BUENA VISTA    MOSUNNY   78  36  21 SE9       30.39F
COPPER MTN     CLOUDY    59  32  36 W20       30.72F
BERTHOUD PASS  FAIR      54  43  66 N9        30.76F
COTTONWOOD PAS PTSUNNY   72  36  26 SE14G20   30.54F
GUNNISON       MOSUNNY   79  36  21 SW8       30.40F
KREMMLING      SUNNY     81   9   6 NW3       30.36F
LEADVILLE      MOSUNNY   66  33  29 VRB6      30.53F
SALIDA         MOSUNNY   82  37  20 E3        30.42F
SUNLIGHT       CLOUDY    61  43  51 CALM      30.66S
WILKERSON PASS SUNNY     64  25  22 CALM      30.69F
$$

COZ069>075-292100-
...SAN LUIS VALLEY/SANGRE DE CRISTO MOUNTAINS...

CITY           SKY/WX    TMP DP  RH WIND       PRES   REMARKS
ALAMOSA        SUNNY     78  41  26 W9        30.38F
LA VETA PASS   CLOUDY    59  41  51 MISG      30.61S
SAGUACHE       MOSUNNY   77  43  29 S6        30.42F
$$

COZ035-036-038>040-292100-
...NORTHERN COLORADO FRONT RANGE...

CITY           SKY/WX    TMP DP  RH WIND       PRES   REMARKS
DENVER INTL AP MOSUNNY   89  38  16 S13       30.20F
DMNS CITY PARK   N/A     89  35  14 SE7       30.18F
AURORA         MOSUNNY   87  39  18 NW3       30.22F
FRONT RANGE AP MOSUNNY   86  36  16 SE13      30.22F
ERIE MUNI ARPT SUNNY     88  31  12 CALM      30.17F
BOULDER MUN AP SUNNY     86  41  20 NE6       30.18F
CENTENNIAL     MOSUNNY   85  39  19 CALM      30.23F
BROOMFIELD     MOSUNNY   90  37  15 E8        30.22F
FORT COLLINS   SUNNY     88  50  27 S9        30.16F
LONGMONT       SUNNY     90  40  17 S6        30.18F
$$

COZ041-046-047-076>085-087-088-292100-
...PIKES PEAK/PALMER DIVIDE AND SOUTHERN FOOTHILLS...

CITY           SKY/WX    TMP DP  RH WIND       PRES   REMARKS
COLO. SPRINGS  MOSUNNY   82  41  23 SE15G26   30.30F
A. F. ACADEMY  SUNNY     81  43  26 S14G21    30.30F
ELLICOTT       SUNNY    N/A N/A N/A S14G20    30.30F
FALCON         SUNNY     78  44  29 MISG      30.37F
FORT CARSON    SUNNY     83  45  26 SE9G21    30.27F
LIMON          SUNNY     83  46  27 S14       30.26F
MONUMENT HILL  SUNNY     79  41  25 S17G24    30.34F
TRINIDAD       SUNNY     86  40  19 E8G18     30.28F
$$

COZ042>045-048>051-090-091-292100-
...NORTHEAST COLORADO...

CITY           SKY/WX    TMP DP  RH WIND       PRES   REMARKS
GREELEY ARPT   SUNNY     88  48  25 E8        30.17F
AKRON          SUNNY     89  39  17 S14G21    30.18F
BURLINGTON     SUNNY     86  44  23 SE9       30.19F
WRAY           SUNNY     94  39  14 S8G18     30.14F
STERLING       SUNNY     90  45  20 S7        30.12F
HOLYOKE        SUNNY     93  52  24 S8        30.13F
FORT MORGAN    SUNNY     90  35  14 SE9       30.17F
$$

COZ086-089-092>099-292100-
...SOUTHEAST COLORADO...

CITY           SKY/WX    TMP DP  RH WIND       PRES   REMARKS
PUEBLO         SUNNY     90  45  21 SE14      30.19F
LA JUNTA       SUNNY     89  44  20 E8        30.19F
LAMAR          SUNNY     89  45  21 S5        30.15F
SPRINGFIELD    NOT AVBL
$$




USA.gov is the U.S. government's official web portal to all federal, state and local government web resources and services.